Chignik Lake, AK

12:21 AM AKST on February 24, 2017 (GMT -0900)
Pilot Point AP, Pilot Point,

Weather History for PAPN - January, 2014

Change the Weather History Date:

Saturday, January 4, 2014

  Actual Average (PAPH) Record (PAPH)
Temperature  
Mean Temperature 36 °F -  
Max Temperature 41 °F 26 °F 78 °F (1997)
Min Temperature 32 °F 15 °F -20 °F (2009)
Degree Days  
Heating Degree Days 28    
Moisture  
Dew Point 35 °F    
Average Humidity 89    
Maximum Humidity 100    
Minimum Humidity 79    
Precipitation  
Precipitation 0.12 in - - ()
Sea Level Pressure  
Sea Level Pressure 29.23 in    
Wind  
Wind Speed 21 mph (East)    
Max Wind Speed 31 mph    
Max Gust Speed 46 mph    
Averages and records for this station are not official NWS values.
T = Trace of Precipitation, MM = Missing Value Source: NWS Daily Summary

Daily Weather History Graph

Daily Weather History Graph

Search for Another Location

Airport or City:

Trip Planner

Search our weather history database for the weather conditions in past years. The results will help you decide how hot, cold, wet, or windy it might be!

Date:

Astronomy

Jan. 04, 2014 Rise Set
Actual Time 10:10 AM AKST 5:00 PM AKST
Civil Twilight 9:21 AM AKST 5:49 PM AKST
Nautical Twilight 8:30 AM AKST 6:40 PM AKST
Astronomical Twilight 7:42 AM AKST 7:28 PM AKST
Moon 11:25 AM AKST (1/4) 10:37 PM AKST (1/4)
Length of Visible Light 8h 28m
Length of Day
6h 49m
Waxing Crescent, 16% of the Moon is Illuminated
Jan 4
Waxing Crescent
Jan 7
First Quarter
Jan 15
Full
Jan 23
Last Quarter
Jan 30
New

Hourly Weather History & Observations

Time (AKST) Temp. Windchill Dew Point Humidity Pressure Visibility Wind Dir Wind Speed Gust Speed Precip Events Conditions
12:56 AM 36.9 °F 25.6 °F 32.0 °F 83% 29.75 in - ENE 23.0 mph 33.4 mph N/A   Unknown
1:56 AM 36.0 °F 25.6 °F 32.0 °F 86% 29.68 in - ENE 18.4 mph 26.5 mph N/A   Unknown
3:56 AM 36.9 °F 25.9 °F 32.0 °F 83% 29.55 in - ENE 21.9 mph 34.5 mph N/A   Unknown
4:56 AM 37.9 °F 27.1 °F 32.0 °F 79% 29.49 in - ENE 23.0 mph 35.7 mph N/A   Unknown
5:56 AM 36.9 °F 24.0 °F 32.0 °F 83% 29.42 in - ENE 31.1 mph 46.0 mph N/A   Unknown
6:56 AM 34.9 °F 23.0 °F 32.9 °F 92% 29.36 in - ENE 23.0 mph 31.1 mph 0.01 in   Unknown
7:56 AM 32.9 °F 19.3 °F 32.0 °F 96% 29.32 in - ENE 27.6 mph 33.4 mph 0.03 in   Unknown
8:56 AM 32.0 °F 20.1 °F 32.0 °F 100% 29.27 in - NE 19.6 mph - N/A   Unknown
9:56 AM 32.9 °F 22.4 °F 32.0 °F 96% 29.25 in - ENE 16.1 mph - 0.04 in   Unknown
10:56 AM 32.9 °F 21.3 °F 32.0 °F 96% 29.22 in - ENE 19.6 mph 26.5 mph 0.03 in   Unknown
11:56 AM 34.9 °F 23.6 °F 32.9 °F 92% 29.18 in - East 20.7 mph 27.6 mph 0.01 in   Unknown
12:56 PM 37.9 °F 28.9 °F 34.9 °F 89% 29.14 in - East 16.1 mph 28.8 mph N/A   Unknown
1:56 PM 41.0 °F 30.9 °F 36.9 °F 85% 29.11 in - ESE 24.2 mph 32.2 mph N/A   Unknown
2:56 PM 41.0 °F 31.4 °F 36.0 °F 82% 29.11 in - ESE 21.9 mph 29.9 mph N/A   Unknown
3:56 PM 39.9 °F 29.5 °F 36.9 °F 89% 29.07 in - ESE 24.2 mph 32.2 mph N/A   Unknown
4:56 PM 39.9 °F 32.1 °F 36.9 °F 89% 29.09 in - East 13.8 mph - N/A   Unknown
5:56 PM 41.9 °F 31.9 °F 37.9 °F 86% 29.08 in - ESE 25.3 mph 28.8 mph N/A   Unknown
6:56 PM 41.9 °F 34.3 °F 37.9 °F 86% 29.08 in - East 15.0 mph 34.5 mph N/A   Unknown
7:56 PM 39.9 °F 30.2 °F 37.9 °F 93% 29.05 in - East 20.7 mph - N/A   Unknown
8:56 PM 39.9 °F 31.4 °F 36.9 °F 89% 29.05 in - ESE 16.1 mph 24.2 mph N/A   Unknown
9:56 PM 38.8 °F 30.4 °F 36.9 °F 93% 29.04 in - ESE 15.0 mph - N/A   Unknown
10:56 PM 39.9 °F 29.7 °F 36.9 °F 89% 29.04 in - ESE 23.0 mph 31.1 mph N/A   Unknown
11:56 PM 41.0 °F 32.2 °F 36.9 °F 85% 29.05 in - ESE 18.4 mph 25.3 mph N/A   Unknown